[[{"header":{"parameterUnit":"m.s-1","parameterCategory":1,"la1":30.2991,"la2":30.254,"lo1":-89.0895,"lo2":-89.0444,"dy":0.0017,"dx":0.0017,"nx":28,"ny":28,"refTime":"2023-08-05T21:00:00:Z","depth":0,"parameterNumber":2,"parameterNumberName":"U-component_of_WINDS"},"data":[0,0,0,0,0,0,0,0,0,0,0,0,0,0,0,0,0,0,0,0,0,0,0,0,0,0,0,0,0,0,0,0,0,0,0,0,0,0,0,0,0,0,0,0,0,0,0,0,0,0,0,0,0,0,0,0,0,0,5.9952,5.9953,0,6.0102,6.0104,6.0105,6.0033,6.0029,6.0025,6.0021,6.0175,6.0183,6.019,0,0,0,0,0,0,0,0,0,0,0,0,0,5.9601,5.9607,5.9952,5.9954,5.9956,6.0102,6.0104,6.0106,6.0033,6.0029,6.0024,6.002,6.0173,6.0182,6.0191,0,0,0,0,0,0,0,0,0,0,0,0,0,5.9752,5.961,5.9951,5.9937,5.9937,6.0101,6.0104,6.0106,6.0034,6.0029,6.0023,6.0017,6.017,6.0181,6.0192,6.0379,0,0,6.0228,6.0233,0,0,0,0,0,0,0,0,5.9744,5.9765,5.9937,5.9938,5.9939,6.0043,6.0036,6.0198,6.0036,5.9998,6.0021,6.0015,6.0136,6.015,6.0191,6.0387,6.0393,6.0229,6.0236,6.0241,6.0244,0,0,0,0,0,0,0,5.9733,5.9758,6.0011,5.994,5.9941,5.9922,5.9938,6.0067,6.0097,6.0,5.9995,6.0014,6.0135,6.018,6.0194,6.0395,6.0228,6.0239,6.0246,6.025,6.075,6.0756,0,0,0,0,0,0,5.9723,5.975,6.0006,6.0016,5.9825,5.9934,5.995,6.0015,6.0096,6.0102,6.0019,6.001,6.0163,6.018,6.0199,6.0421,6.024,6.0251,6.0258,6.0744,6.0751,6.0758,0,0,0,0,0,0,5.9716,5.9747,6.0,5.9882,5.9912,5.9946,6.0019,6.0021,6.0066,6.011,6.0115,6.0059,6.0159,6.0183,6.0334,6.0425,6.0256,6.0267,6.0736,6.0746,6.0755,6.0868,0,0,0,0,0,0,5.9706,5.9745,5.9817,5.9884,5.9919,6.0134,6.0025,6.0028,6.0086,6.0076,6.0149,6.0155,6.0156,6.0318,6.0346,6.0438,6.0276,6.0728,6.0741,6.0752,6.0857,6.0881,6.0901,0,0,0,0,0,5.9694,5.9843,5.9821,5.9852,6.001,6.014,6.016,6.0158,6.0094,6.0165,6.0193,6.0153,6.0411,6.0334,6.0365,6.0462,6.0722,6.0737,6.0751,6.0847,6.0876,6.0901,0,0,0,0,0,0,5.9786,5.9852,5.9827,6.0003,6.0066,6.0127,6.0218,6.0189,6.0272,6.0259,6.0254,6.0271,6.0428,6.046,6.0373,6.0646,6.0557,6.0578,6.0619,6.0647,6.0669,6.0657,6.0286,0,0,0,0,0,5.9827,5.9927,5.9979,6.0129,6.0162,6.0185,6.0241,6.0234,6.0299,6.0326,6.0365,6.043,6.0525,6.0588,6.0679,6.0862,6.0875,6.0944,6.0966,6.0984,6.1002,6.1098,6.1129,6.0805,6.0805,6.0805,0,0,5.9912,5.996,6.0024,6.0148,6.0197,6.03,6.0208,6.0321,6.0397,6.0343,6.0488,6.0519,6.0591,6.0759,6.0834,6.0791,6.1094,6.1002,6.1016,6.1024,6.1116,6.1147,6.1174,6.0815,6.0813,6.0812,0,0,6.0119,6.0167,6.0295,6.0345,6.0419,6.0433,6.0464,6.053,6.0548,6.0694,6.0654,6.0745,6.091,6.0962,6.101,6.1236,6.1201,6.1266,6.1382,6.1476,6.1501,6.1524,6.1602,6.163,6.1284,6.1285,6.1285,0,6.0215,6.0369,6.0365,6.0481,6.0536,6.0492,6.0621,6.067,6.077,6.0809,6.0759,6.0964,6.1009,6.1187,6.1242,6.1284,6.1317,6.1257,6.1498,6.1521,6.1542,6.1616,6.1646,6.1292,6.1291,6.129,6.129,0,6.0483,6.059,6.0685,6.0782,6.0848,6.097,6.0984,6.1051,6.1039,6.1058,6.1205,6.1258,6.1358,6.14,6.1389,6.1576,6.1546,6.1498,6.1407,6.158,6.1649,6.1678,6.1302,6.13,6.1297,6.1296,0,0,6.0751,6.0843,6.0878,6.092,6.0999,6.1081,6.1201,6.1298,6.1355,6.1425,6.1524,6.1665,6.162,6.1674,6.1669,6.1752,6.1925,6.1693,6.1695,6.1732,6.2131,6.2165,6.2198,6.1903,6.1908,6.1913,6.2124,0,6.0962,6.1171,6.117,6.1363,6.1461,6.1421,6.1525,6.1583,6.1604,6.169,6.1713,6.1812,6.1746,6.1779,6.1859,6.1887,6.2004,6.1872,6.1993,6.1997,6.1974,6.2235,6.2272,6.2469,6.2151,6.2156,6.2159,0,6.1235,6.1313,6.1516,6.1578,6.1619,6.1713,6.18,6.1883,6.1949,6.1958,6.2019,6.2,6.2121,6.2029,6.2194,6.2104,6.2154,6.2175,6.2182,6.2191,6.2087,6.2249,6.2532,6.256,6.2203,6.2199,6.2196,0,6.1407,6.1564,6.1705,6.1743,6.1819,6.1885,6.192,6.198,6.2038,6.2114,6.2151,6.2242,6.2291,6.2361,6.2367,6.2299,6.2533,6.2441,6.2542,6.2542,6.2591,6.2588,6.2883,6.2628,6.2628,6.2627,6.2627,0,6.1641,6.1766,6.1783,6.1869,6.2007,6.2005,6.2142,6.2171,6.2224,6.2315,6.2286,6.2372,6.2376,6.2463,6.2469,6.2603,6.2627,6.2636,6.2636,6.2638,6.2636,6.2668,6.2654,6.2635,6.2633,6.2632,6.263,0,6.1856,6.1873,6.2023,6.2083,6.2101,6.22,6.225,6.2332,6.235,6.2465,6.2492,6.252,6.2622,6.2635,6.2754,6.2758,6.2919,6.2905,6.2896,6.2893,6.2992,6.2982,6.3317,6.336,6.3079,6.3082,6.3084,0,6.2003,6.2098,6.2168,6.2226,6.2264,6.2359,6.2417,6.2419,6.2481,6.2561,6.2633,6.2731,6.281,6.2973,6.3004,6.3095,6.3081,6.3193,6.3095,6.3093,6.308,6.3073,6.3081,6.3211,6.3214,6.3217,6.3219,0,6.2261,6.2264,6.2349,6.2437,6.2508,6.2577,6.2642,6.2692,6.2701,6.2772,6.2875,6.2936,6.3057,6.3154,6.3243,6.3278,6.325,6.325,6.3277,6.3278,6.3268,6.3272,6.2945,6.3241,6.3239,6.3237,6.3236,6.3235,6.2445,6.2526,6.2587,6.2683,6.2732,6.2793,6.2872,6.29,6.2985,6.3083,6.3079,6.3192,6.3253,6.3369,6.3411,6.3498,6.3462,6.3503,6.3512,6.3522,6.353,6.3256,6.3515,6.3515,6.3514,6.3513,6.3513,0,6.2699,6.2736,6.2824,6.2915,6.299,6.2957,6.3027,6.3092,6.3191,6.3251,6.3328,6.3445,6.3539,6.3578,6.3669,6.3732,6.3721,6.3756,6.375,6.3758,6.3559,6.3525,6.3763,6.3762,6.3762,6.3762,6.3762,6.3762,6.284,6.2975,6.2985,6.3144,6.318,6.3289,6.3332,6.3388,6.3435,6.3567,6.3644,6.3669,6.3719,6.3814,6.3899,6.3907,6.3941,6.3981,6.3984,6.3797,6.3772,6.3748,6.3715,6.3989,6.3989,6.4175,6.4176,6.4178]},{"header":{"parameterUnit":"m.s-1","parameterCategory":1,"la1":30.2991,"la2":30.254,"lo1":-89.0895,"lo2":-89.0444,"dy":0.0017,"dx":0.0017,"nx":28,"ny":28,"refTime":"2023-08-05T21:00:00:Z","depth":0,"parameterNumber":3,"parameterNumberName":"V-component_of_WINDS"},"data":[0,0,0,0,0,0,0,0,0,0,0,0,0,0,0,0,0,0,0,0,0,0,0,0,0,0,0,0,0,0,0,0,0,0,0,0,0,0,0,0,0,0,0,0,0,0,0,0,0,0,0,0,0,0,0,0,0,0,2.0044,2.0045,0,2.0137,2.0138,2.0139,2.0129,2.0127,2.0126,2.0125,2.0222,2.0226,2.023,0,0,0,0,0,0,0,0,0,0,0,0,0,1.9861,1.9864,2.0044,2.0045,2.0047,2.0137,2.0138,2.0139,2.0129,2.0127,2.0126,2.0124,2.0221,2.0225,2.023,0,0,0,0,0,0,0,0,0,0,0,0,0,1.9945,1.9865,2.0044,2.0052,2.0054,2.0136,2.0138,2.0139,2.013,2.0127,2.0125,2.0123,2.0219,2.0225,2.0231,2.0311,0,0,2.0249,2.0251,0,0,0,0,0,0,0,0,1.9941,1.9952,2.005,2.0052,2.0054,2.0119,2.0109,2.0197,2.013,2.0101,2.0125,2.0122,2.019,2.0198,2.022,2.0316,2.032,2.0249,2.0253,2.0255,2.0257,0,0,0,0,0,0,0,1.9935,1.9948,2.0081,2.0051,2.0054,2.0052,2.0062,2.0125,2.0157,2.0103,2.0103,2.0114,2.019,2.0214,2.0222,2.0322,2.0249,2.0254,2.0258,2.026,2.0487,2.0489,0,0,0,0,0,0,1.9927,1.9943,2.0078,2.0084,1.9991,2.0057,2.0068,2.01,2.0156,2.0162,2.0116,2.0113,2.0205,2.0215,2.0226,2.0323,2.0255,2.0261,2.0264,2.0485,2.0488,2.049,0,0,0,0,0,0,1.9923,1.9939,2.0074,2.0013,2.0031,2.0063,2.0099,2.0103,2.0127,2.0165,2.0171,2.0134,2.0204,2.0217,2.029,2.0326,2.0264,2.0269,2.0482,2.0486,2.0489,2.0519,0,0,0,0,0,0,1.9917,1.9937,1.9968,2.0014,2.0034,2.0137,2.0101,2.0107,2.0137,2.0135,2.0184,2.019,2.0203,2.0281,2.0296,2.0334,2.0274,2.0479,2.0483,2.0488,2.0515,2.0524,2.0531,0,0,0,0,0,1.9911,1.9974,1.997,1.9986,2.0073,2.0139,2.015,2.0163,2.014,2.0172,2.0196,2.0189,2.032,2.0288,2.0305,2.0345,2.0476,2.0482,2.0487,2.0512,2.0522,2.0531,0,0,0,0,0,0,1.9933,1.998,1.9976,2.0056,2.0093,2.0137,2.0177,2.0173,2.0219,2.0215,2.0229,2.0241,2.0313,2.0336,2.0301,2.0425,2.0395,2.0404,2.0408,2.0418,2.0426,2.0419,2.0279,0,0,0,0,0,1.9947,1.9996,2.0035,2.0101,2.012,2.0145,2.0174,2.0181,2.022,2.0236,2.0266,2.0305,2.0355,2.0388,2.0436,2.0518,2.0528,2.0554,2.0561,2.0568,2.0576,2.062,2.0632,2.0508,2.0508,2.0508,0,0,1.9977,2.0008,2.0039,2.0106,2.0136,2.0186,2.0159,2.0214,2.0251,2.0245,2.0315,2.0337,2.0382,2.046,2.0495,2.0481,2.0612,2.0575,2.0579,2.0584,2.0627,2.0639,2.0649,2.0512,2.0511,2.0511,0,0,2.0057,2.0086,2.0144,2.0173,2.0218,2.0234,2.0248,2.0292,2.0306,2.0376,2.0372,2.0417,2.0503,2.0535,2.0562,2.0652,2.0647,2.0667,2.0708,2.0751,2.0761,2.077,2.0802,2.0813,2.0675,2.0675,2.0675,0,2.0088,2.0164,2.0174,2.0229,2.0259,2.0254,2.0313,2.0342,2.04,2.0421,2.0404,2.051,2.054,2.0625,2.0646,2.0669,2.0685,2.0662,2.0759,2.0768,2.0776,2.0806,2.0818,2.0677,2.0677,2.0677,2.0676,0,2.02,2.0252,2.0294,2.0349,2.0383,2.044,2.0459,2.0493,2.0496,2.0514,2.0584,2.062,2.0674,2.0695,2.0699,2.0779,2.0769,2.0755,2.0725,2.079,2.0818,2.083,2.068,2.0679,2.0679,2.0678,0,0,2.0298,2.0357,2.0372,2.0396,2.0444,2.0485,2.0541,2.0593,2.0622,2.0662,2.0709,2.0781,2.0768,2.0799,2.0806,2.0844,2.0912,2.0826,2.0827,2.084,2.1003,2.1013,2.1026,2.0909,2.0911,2.0913,2.0999,0,2.0383,2.0481,2.0492,2.058,2.0628,2.0623,2.0672,2.0707,2.0725,2.0768,2.0788,2.0838,2.0818,2.0836,2.0873,2.0896,2.0945,2.089,2.0954,2.0956,2.0943,2.1041,2.1053,2.1132,2.101,2.1012,2.1013,0,2.0495,2.0537,2.0629,2.0669,2.069,2.0734,2.0781,2.0823,2.0862,2.0872,2.0906,2.0908,2.0966,2.0932,2.1012,2.0975,2.1001,2.1016,2.1019,2.1026,2.0989,2.1051,2.1158,2.117,2.1031,2.103,2.1029,0,2.0557,2.0636,2.0702,2.0723,2.0771,2.0802,2.0823,2.086,2.089,2.0932,2.0952,2.1001,2.1027,2.1065,2.108,2.1054,2.1159,2.1127,2.1169,2.1169,2.1192,2.1191,2.1305,2.1209,2.1209,2.1208,2.1208,0,2.0651,2.0708,2.073,2.077,2.0834,2.0845,2.0907,2.0928,2.096,2.1004,2.1003,2.1045,2.1062,2.1106,2.1118,2.1182,2.1194,2.1204,2.1207,2.1205,2.1204,2.1223,2.1218,2.1212,2.1211,2.121,2.121,0,2.0731,2.0748,2.0819,2.0858,2.0869,2.0914,2.0948,2.0987,2.1003,2.1059,2.1073,2.1099,2.1151,2.1169,2.1233,2.1241,2.1315,2.1313,2.1302,2.1302,2.1343,2.1339,2.1475,2.1493,2.1384,2.1385,2.1386,0,2.079,2.0833,2.0876,2.0905,2.0928,2.0975,2.1005,2.1017,2.1049,2.1096,2.1129,2.118,2.1222,2.1305,2.133,2.1378,2.1378,2.1422,2.1385,2.1381,2.1378,2.1375,2.138,2.1429,2.143,2.1431,2.1431,0,2.0892,2.0898,2.0941,2.0987,2.1023,2.106,2.1096,2.112,2.1138,2.1173,2.1226,2.1258,2.1322,2.1373,2.1422,2.1444,2.1441,2.1442,2.1455,2.1453,2.1445,2.145,2.1321,2.144,2.1439,2.1438,2.1438,2.1437,2.0964,2.1001,2.1037,2.1085,2.1113,2.1146,2.1184,2.1205,2.1248,2.1301,2.1305,2.1362,2.1398,2.1464,2.1488,2.1533,2.1521,2.1539,2.1543,2.1548,2.1551,2.1437,2.1542,2.1542,2.1542,2.1541,2.1541,0,2.1066,2.1088,2.1132,2.1181,2.1219,2.1211,2.125,2.1282,2.1331,2.1365,2.1406,2.1466,2.1515,2.1543,2.1591,2.1622,2.1621,2.1634,2.1632,2.1637,2.1559,2.1543,2.1634,2.1633,2.1633,2.1633,2.1633,2.1633,2.1123,2.1186,2.1196,2.1273,2.1295,2.135,2.1373,2.1403,2.143,2.1497,2.1537,2.1554,2.1586,2.1637,2.1681,2.1688,2.1706,2.1721,2.1726,2.1653,2.1643,2.1634,2.1619,2.1724,2.1724,2.1801,2.1802,2.1803]}]]